#�ϑ�����,���ϕ���,���ϕ���,�ő啗��,�ő啗����������,�ő�u�ԕ���,�ő�u�ԕ�����������
#(�N����),(m/s)   ,(16����),(m/s)   ,(16����)        ,(m/s)       ,(16����)            
2012/8/31 0:01,1.6,5,1.6,3,3.2,4
2012/8/31 0:02,1.8,5,1.8,4,2.9,4
2012/8/31 0:03,1.8,5,1.8,4,2.9,5
2012/8/31 0:04,1.7,5,1.8,4,1.5,5
2012/8/31 0:05,1.6,5,1.7,4,2,7
2012/8/31 0:06,1.7,5,1.7,4,2.4,3
2012/8/31 0:07,1.7,5,1.7,5,2.4,4
2012/8/31 0:08,1.7,5,1.7,5,2.4,5
2012/8/31 0:09,1.7,5,1.7,5,2.2,4
2012/8/31 0:10,1.6,4,1.7,5,1.8,5
2012/8/31 0:11,1.5,4,1.6,5,1.9,3
2012/8/31 0:12,1.3,4,1.5,5,1,5
2012/8/31 0:13,1.3,4,1.3,5,2.4,2
2012/8/31 0:14,1.4,4,1.4,5,2.6,2
2012/8/31 0:15,1.3,4,1.4,5,1.8,4
2012/8/31 0:16,1.3,4,1.3,5,2.4,5
2012/8/31 0:17,1.3,4,1.3,5,2,5
2012/8/31 0:18,1.3,4,1.3,5,1.5,4
2012/8/31 0:19,1.2,4,1.3,5,1.3,5
2012/8/31 0:20,1.2,4,1.2,4,1.8,5
2012/8/31 0:21,1.1,4,1.2,4,1.3,3
2012/8/31 0:22,1.1,4,1.1,4,1.1,4
2012/8/31 0:23,1,4,1.1,4,0.6,4
2012/8/31 0:24,0.8,4,1,4,0.6,3
2012/8/31 0:25,0.8,4,0.8,4,1.1,4
2012/8/31 0:26,0.7,4,0.8,4,0.9,6
2012/8/31 0:27,0.7,4,0.8,4,1.9,4
2012/8/31 0:28,0.8,4,0.8,4,1.6,4
2012/8/31 0:29,0.8,4,0.8,4,1.5,4
2012/8/31 0:30,0.8,5,0.8,4,1.5,5
2012/8/31 5:07,1.5,2,1.5,2,1.8,1
2012/8/31 5:08,1.3,2,1.5,2,2,1
2012/8/31 5:09,1.2,2,1.4,2,2.1,2
2012/8/31 5:10,1.1,2,1.2,2,1.8,3
2012/8/31 5:11,1.1,2,1.1,2,1.5,1
2012/8/31 5:12,1,2,1.1,2,1.5,16
2012/8/31 5:13,1,1,1,2,1.4,1
2012/8/31 5:14,1,1,1,2,1.3,16
2012/8/31 5:15,1,1,1,2,1.6,2
2012/8/31 5:16,1,2,1,2,1.5,2
2012/8/31 5:17,0.9,1,1,2,1.4,1
2012/8/31 5:18,0.9,1,0.9,2,1.4,1
2012/8/31 5:19,0.9,1,0.9,2,1.3,2
2012/8/31 5:20,0.9,1,0.9,2,1,16
2012/8/31 5:21,0.8,1,0.9,2,1.1,2
2012/8/31 5:22,0.8,1,0.8,2,1.1,16
2012/8/31 5:23,0.8,1,0.8,1,1,14
2012/8/31 5:24,0.8,1,0.8,1,1,2
2012/8/31 5:25,0.8,1,0.8,1,1.8,15
2012/8/31 5:26,0.8,1,0.8,2,1.8,14
2012/8/31 5:27,0.9,1,0.9,1,2,16
2012/8/31 5:28,0.9,1,0.9,1,1.9,16
2012/8/31 5:29,1,16,1,1,2.1,16
2012/8/31 5:30,1.1,16,1.1,16,2.1,16
2012/8/31 5:31,1.1,16,1.1,16,2.2,16
2012/8/31 5:32,1.2,16,1.2,16,2.4,16
2012/8/31 5:33,1.3,16,1.3,16,2.1,16
2012/8/31 5:34,1.4,16,1.4,16,2.5,16
2012/8/31 5:35,1.5,16,1.5,16,2.5,16
2012/8/31 5:36,1.5,16,1.5,16,2.1,16
2012/8/31 5:37,1.5,16,1.5,16,1.8,1
2012/8/31 5:38,1.5,16,1.5,16,1.9,1
2012/8/31 5:39,1.5,16,1.5,16,1.8,1
2012/8/31 5:40,1.4,16,1.5,16,1.5,2
2012/8/31 5:41,1.4,16,1.4,16,1.1,16
2012/8/31 5:42,1.3,16,1.3,16,0.9,16
2012/8/31 5:43,1.1,16,1.2,16,0.9,1
2012/8/31 5:44,1.1,1,1.1,16,1.4,16
2012/8/31 5:45,1,1,1.1,16,1.5,16
2012/8/31 5:46,1,16,1,16,1.5,16
2012/8/31 5:47,1,16,1,16,1.8,16
2012/8/31 5:48,1,16,1.1,16,1.8,16
2012/8/31 5:49,1.1,16,1.1,16,1.9,16
2012/8/31 5:50,1.1,16,1.1,16,1.6,16
2012/8/31 5:51,1.2,16,1.2,16,2.1,14
2012/8/31 5:52,1.2,16,1.2,16,2,15
2012/8/31 5:53,1.3,16,1.3,16,2,16
2012/8/31 5:54,1.4,16,1.4,16,2.4,15
2012/8/31 5:55,1.4,16,1.4,16,2.2,16
2012/8/31 5:56,1.5,16,1.5,16,2,15
2012/8/31 5:57,1.5,16,1.5,16,1.9,15
2012/8/31 5:58,1.5,16,1.5,16,1.9,16
2012/8/31 5:59,1.5,16,1.5,16,1.9,16
2012/8/31 6:00,1.5,16,1.5,16,1.5,1
2012/8/31 6:01,1.4,16,1.5,16,1.3,16
2012/8/31 6:02,1.3,16,1.4,16,0.9,15
2012/8/31 6:03,1.3,16,1.3,16,1,16
2012/8/31 6:04,1.2,16,1.3,16,1,16
2012/8/31 6:05,1.1,16,1.2,16,0.5,2
2012/8/31 6:06,0.9,16,1.1,16,0.4,15
2012/8/31 6:07,0.8,16,0.9,16,0.5,1
2012/8/31 6:08,0.7,16,0.8,16,0.8,16
2012/8/31 6:09,0.6,16,0.7,16,1.1,15
2012/8/31 6:10,0.6,16,0.6,16,1.1,16
2012/8/31 6:11,0.5,16,0.6,16,1,15
2012/8/31 6:12,0.5,16,0.5,16,1,2
2012/8/31 6:13,0.5,16,0.5,16,0.8,2
2012/8/31 6:14,0.4,1,0.5,16,0.5,16
2012/8/31 6:15,0.5,1,0.5,16,0.9,2
2012/8/31 6:16,0.6,1,0.6,16,1.3,2
2012/8/31 6:17,0.6,1,0.6,16,1,1
2012/8/31 6:18,0.6,1,0.6,16,0.9,16
2012/8/31 6:19,0.6,1,0.6,16,1.1,16
2012/8/31 6:20,0.6,1,0.6,16,1.1,16
2012/8/31 6:21,0.6,1,0.6,1,1,1
2012/8/31 6:22,0.6,1,0.6,1,1.1,1
2012/8/31 6:23,0.7,1,0.7,1,1.3,1
2012/8/31 6:24,0.7,1,0.7,1,1.5,1
2012/8/31 6:25,0.7,1,0.7,1,1.3,1
2012/8/31 6:26,0.7,1,0.8,1,1.4,16
2012/8/31 6:27,0.8,1,0.8,1,1.3,16
2012/8/31 6:28,0.8,1,0.8,1,0.9,15
2012/8/31 6:29,0.8,1,0.8,1,1.5,16
2012/8/31 6:30,0.9,1,0.9,1,2.2,16
2012/8/31 6:31,0.9,16,0.9,1,2,16
2012/8/31 6:32,1,16,1,16,1.5,16
2012/8/31 6:33,1,16,1,16,1,16
2012/8/31 6:34,0.9,16,0.9,16,0.5,16
2012/8/31 6:35,0.8,16,0.9,16,0.4,16
2012/8/31 6:36,0.8,1,0.8,16,1,2
2012/8/31 6:37,0.8,1,0.8,16,1,3
2012/8/31 6:38,0.8,1,0.8,16,1.1,3
2012/8/31 6:39,0.8,1,0.8,16,1.1,2
2012/8/31 6:40,0.7,2,0.8,16,1,2
2012/8/31 6:41,0.6,2,0.7,16,0.9,3
2012/8/31 6:42,0.6,2,0.6,16,1.4,3
2012/8/31 6:43,0.7,2,0.7,16,1.8,3
2012/8/31 6:44,0.8,3,0.8,16,1.8,3
2012/8/31 6:45,0.9,3,0.9,3,1.5,3
2012/8/31 6:46,0.9,3,0.9,3,1.3,4
2012/8/31 6:47,0.9,3,0.9,3,1,5
2012/8/31 6:48,0.9,4,1,3,1.4,5
2012/8/31 6:49,1,4,1,3,1.8,4
2012/8/31 6:50,1,4,1,3,1.6,6
2012/8/31 6:51,1.1,4,1.1,4,1.5,4
2012/8/31 6:52,1.1,4,1.1,4,1.8,4
2012/8/31 6:53,1.1,5,1.1,4,1.6,6
2012/8/31 6:54,1.1,5,1.1,4,2,6
2012/8/31 6:55,1.1,5,1.1,4,1.9,6
2012/8/31 6:56,1.1,5,1.1,4,1.5,6
2012/8/31 9:13,1.3,6,1.3,6,1.3,6
2012/8/31 9:14,1,6,1.5,5,1.8,5
2012/8/31 9:15,1,6,1.1,5,1.6,5
2012/8/31 9:16,1.1,6,1.1,5,1.8,6
2012/8/31 9:17,1,6,1.1,5,1.4,6
2012/8/31 9:18,0.9,6,1,5,0.9,6
2012/8/31 9:19,0.9,5,0.9,5,1.6,2
2012/8/31 9:20,0.9,5,0.9,5,2,5
2012/8/31 9:21,1.1,5,1.1,5,3,5
2012/8/31 9:22,1.1,5,1.1,5,2,6
2012/8/31 9:23,1.2,5,1.2,5,3.2,6
2012/8/31 9:24,1.4,5,1.4,5,4.2,7
2012/8/31 9:25,1.4,5,1.4,5,2.5,8
2012/8/31 9:26,1.4,5,1.4,5,1.1,8
2012/8/31 9:27,1.3,5,1.3,5,1.5,9
2012/8/31 9:28,1.4,6,1.4,5,3.2,8
2012/8/31 9:29,1.4,6,1.4,5,2,7
2012/8/31 9:30,1.5,7,1.5,7,2.2,7
2012/8/31 9:31,1.4,7,1.5,7,1.9,6
2012/8/31 9:32,1.3,7,1.4,7,1.3,6
2012/8/31 9:33,1.3,7,1.3,7,3,6
2012/8/31 9:34,1.2,6,1.3,7,2.5,6
2012/8/31 9:35,1.2,6,1.2,7,3.8,7
2012/8/31 9:36,1.3,7,1.3,7,4.4,7
2012/8/31 9:37,1.6,7,1.6,7,5.1,6
2012/8/31 9:38,1.7,7,1.7,7,4.7,6
2012/8/31 9:39,1.9,6,1.9,7,4.8,7
2012/8/31 9:40,2.1,6,2.1,6,3.9,8
2012/8/31 9:41,2.1,7,2.1,6,3.6,8
2012/8/31 9:42,2.3,7,2.3,7,3.1,7
2012/8/31 9:43,2.3,7,2.3,7,3.5,8
2012/8/31 9:44,2.4,7,2.4,7,4.7,8
2012/8/31 9:45,2.5,7,2.5,7,4.3,8
2012/8/31 9:46,2.6,7,2.6,7,4.9,9
2012/8/31 9:47,2.4,8,2.6,7,2,8
2012/8/31 9:48,2.2,8,2.4,7,2.1,7
2012/8/31 9:49,2.1,8,2.2,7,3.8,8
2012/8/31 9:50,2.2,8,2.2,7,6.2,10
2012/8/31 9:51,2.4,8,2.4,7,6,9
2012/8/31 9:52,2.5,8,2.6,7,6,8
2012/8/31 9:53,2.6,9,2.6,7,5.8,9
2012/8/31 9:54,2.7,9,2.7,9,5.4,8
2012/8/31 9:55,2.6,9,2.6,9,4.2,9
2012/8/31 9:56,2.6,9,2.6,9,6.7,8
2012/8/31 9:57,2.9,9,2.9,9,6.3,8
2012/8/31 9:58,3.1,9,3.1,9,5.4,7
2012/8/31 9:59,3.2,9,3.2,9,4.9,8
2012/8/31 10:00,3.1,8,3.2,9,5.4,8
2012/8/31 10:01,3.2,8,3.2,9,6.3,6
2012/8/31 10:02,3.3,8,3.3,8,7.9,8
2012/8/31 10:03,3.2,8,3.3,8,3.9,6
2012/8/31 10:04,3.2,8,3.2,8,4.4,7
2012/8/31 10:05,3.3,8,3.3,8,5.7,9
2012/8/31 10:06,3.2,8,3.3,8,4.7,11
2012/8/31 10:07,3.1,9,3.2,8,3.6,9
2012/8/31 10:08,2.9,9,3.1,8,3.8,9
2012/8/31 10:09,2.9,9,3,8,3.2,9
2012/8/31 10:10,2.8,9,2.9,8,3.6,9
2012/8/31 10:11,2.7,9,2.8,8,7,9
2012/8/31 10:12,2.6,9,2.6,8,6.4,9
2012/8/31 10:13,2.7,10,2.7,8,6.1,9
2012/8/31 10:14,2.9,10,2.9,8,8.2,8
2012/8/31 10:15,3.2,9,3.2,8,7.7,8
2012/8/31 10:16,3.2,9,3.2,8,4.4,9
2012/8/31 10:17,3.2,9,3.2,9,3.7,9
2012/8/31 10:18,3.2,9,3.2,9,3.8,9
2012/8/31 10:19,3.1,9,3.2,9,2,11
2012/8/31 10:20,2.9,9,3.1,9,2.6,9
2012/8/31 10:21,3,9,3,9,5,8
2012/8/31 10:22,2.8,9,3,9,4.5,10
2012/8/31 10:23,2.8,9,2.9,9,4.9,9
2012/8/31 10:24,2.4,9,2.7,9,4.2,9
2012/8/31 10:25,2,9,2.4,9,2.9,9
2012/8/31 10:26,1.8,9,2,9,1.6,9
2012/8/31 10:27,1.9,9,1.9,9,4.5,8
2012/8/31 10:28,1.8,9,1.9,9,4.2,7
2012/8/31 10:29,2,9,2,9,5.1,9
2012/8/31 10:30,2.3,9,2.3,9,4.7,9
2012/8/31 10:31,2.3,9,2.3,9,4.9,9
2012/8/31 10:32,2.3,9,2.3,9,4.2,9
2012/8/31 10:33,2.3,9,2.3,9,5.1,8
2012/8/31 10:34,2.5,9,2.5,9,6.3,8
2012/8/31 10:35,2.6,9,2.6,9,5.4,9
2012/8/31 10:36,3,9,3,9,7,9
2012/8/31 10:37,2.9,9,3,9,5,8
2012/8/31 10:38,3,9,3,9,4.5,9
2012/8/31 10:39,3,9,3,9,5,9
2012/8/31 10:40,2.8,9,3,9,4.4,9
2012/8/31 10:41,2.9,9,2.9,9,5.5,9
2012/8/31 10:42,2.9,9,2.9,9,4.8,10
2012/8/31 10:43,2.9,9,3,9,5.7,8
2012/8/31 10:44,2.9,9,3,9,5,8
2012/8/31 10:45,3,9,3,9,5.4,9
2012/8/31 10:46,2.8,9,3,9,3.6,9
2012/8/31 10:47,2.8,9,2.9,9,3.6,10
2012/8/31 10:48,2.7,9,2.8,9,3.3,9
2012/8/31 10:49,2.6,9,2.7,9,3.2,8
2012/8/31 10:50,2.8,9,2.8,9,4.5,9
2012/8/31 10:51,2.8,9,2.8,9,4.4,10
2012/8/31 10:52,2.7,8,2.8,9,4.4,8
2012/8/31 10:53,2.6,8,2.7,9,2.9,8
2012/8/31 10:54,2.5,9,2.6,9,2.4,9
2012/8/31 10:55,2.4,9,2.5,9,3.8,8
2012/8/31 10:56,2.4,9,2.4,9,4.4,10
2012/8/31 10:57,2.4,9,2.4,9,4.9,9
2012/8/31 10:58,2.4,9,2.5,9,3.8,9
2012/8/31 10:59,2.5,9,2.5,9,3.9,10
2012/8/31 11:00,2.4,9,2.4,9,4.5,11
2012/8/31 11:01,2.3,9,2.4,8,4.2,11
2012/8/31 11:02,2.2,9,2.3,8,3.8,9
2012/8/31 11:03,2.3,9,2.3,8,4.7,9
2012/8/31 11:04,2.3,9,2.3,9,4.3,8
2012/8/31 11:05,2.3,9,2.3,9,3.8,8
2012/8/31 11:06,2.3,9,2.3,9,4.4,9
2012/8/31 11:07,2.2,9,2.3,9,3.5,9
2012/8/31 11:08,2.2,9,2.2,9,3.9,9
2012/8/31 11:09,2.2,9,2.2,9,3.8,8
2012/8/31 11:10,2.1,9,2.2,9,2.6,8
2012/8/31 11:11,2,9,2.1,9,2.9,9
2012/8/31 11:12,2.1,9,2.1,9,3.5,9
2012/8/31 11:13,2.1,9,2.1,9,4.2,8
2012/8/31 11:14,2.1,9,2.1,9,4.5,9
2012/8/31 11:15,2,9,2.1,9,2.9,10
2012/8/31 11:16,2.1,9,2.1,9,4.9,9
2012/8/31 11:17,2.1,9,2.1,9,5,9
2012/8/31 11:18,2.2,9,2.2,9,4.3,9
2012/8/31 11:19,2.1,9,2.2,9,3.5,8
2012/8/31 11:20,2.1,9,2.1,9,3.1,8
2012/8/31 11:21,2,9,2.1,9,1.6,9
2012/8/31 11:22,2,9,2,9,3.7,10
2012/8/31 11:23,2,9,2,9,3.2,9
2012/8/31 11:24,1.9,9,2,9,3.6,10
2012/8/31 11:25,2,9,2,9,4.9,8
2012/8/31 11:26,1.9,9,2,9,4.2,8
2012/8/31 11:27,2.2,9,2.2,9,7.2,9
2012/8/31 11:28,2.3,9,2.3,9,6.4,9
2012/8/31 11:29,2.5,9,2.5,9,5.2,9
2012/8/31 11:30,2.6,9,2.6,9,5.8,9
2012/8/31 11:31,2.9,9,2.9,9,5.7,9
2012/8/31 11:32,3.1,9,3.1,9,6.2,9
2012/8/31 11:33,3,9,3.1,9,4.8,8
2012/8/31 11:34,3.1,9,3.1,9,5.4,9
2012/8/31 11:35,3.2,9,3.2,9,5.7,8
2012/8/31 11:36,3.4,9,3.4,9,6.4,9
2012/8/31 11:37,3.3,9,3.4,9,6.3,8
2012/8/31 11:38,3.4,9,3.4,9,6.4,10
2012/8/31 11:39,3.3,9,3.3,9,5.4,8
2012/8/31 11:40,3.5,9,3.5,9,6,8
2012/8/31 11:41,3.5,9,3.5,9,5.2,9
2012/8/31 11:42,3.4,9,3.6,9,4.7,8
2012/8/31 11:43,3.5,9,3.5,9,4.2,9
2012/8/31 11:44,3.4,9,3.5,9,5.7,8
2012/8/31 11:45,3.5,9,3.5,9,4.4,8
2012/8/31 11:46,3.2,9,3.5,9,3.5,8
2012/8/31 11:47,3,9,3.1,9,4.4,9
2012/8/31 11:48,2.8,9,2.9,9,5.2,9
2012/8/31 11:49,2.8,9,2.9,9,5.6,9
2012/8/31 11:50,2.7,9,2.8,9,4.9,8
2012/8/31 11:51,2.6,9,2.7,9,3.9,9
2012/8/31 11:52,2.6,9,2.6,9,4.1,9
2012/8/31 11:53,2.6,9,2.7,9,4.3,8
2012/8/31 11:54,2.6,9,2.6,9,4.7,8
2012/8/31 11:55,2.7,9,2.7,9,6.5,8
2012/8/31 11:56,2.9,9,2.9,9,6,9
2012/8/31 11:57,3.1,9,3.1,9,5.8,9
2012/8/31 11:58,3.1,9,3.1,9,7,9
2012/8/31 11:59,3,9,3.1,9,3.8,9
2012/8/31 12:00,2.9,9,3,9,7.1,9
2012/8/31 12:01,3.2,9,3.2,9,7.6,10
2012/8/31 12:02,3.4,9,3.4,9,7.4,10
2012/8/31 12:03,3.4,9,3.4,9,5.5,8
2012/8/31 12:04,3.6,9,3.6,9,7.4,9
2012/8/31 12:05,3.5,9,3.6,9,7,9
2012/8/31 12:06,3.3,9,3.4,9,4.4,7
2012/8/31 12:07,3.2,9,3.3,9,4.7,8
2012/8/31 12:08,3.2,9,3.2,9,5,8
2012/8/31 12:09,3.2,9,3.2,9,4.2,8
2012/8/31 12:10,3.1,9,3.3,9,3.2,10
2012/8/31 12:11,2.8,9,3.1,9,3.3,9
2012/8/31 12:12,2.4,9,2.8,9,2.6,8
2012/8/31 12:13,2.4,9,2.4,9,4.5,9
2012/8/31 12:14,2.1,10,2.4,9,3,9
2012/8/31 12:15,2,9,2.1,9,3.3,8
2012/8/31 12:16,2,9,2,9,3.1,6
2012/8/31 12:17,1.9,9,1.9,9,2.7,8
2012/8/31 12:18,1.8,9,1.9,9,5.5,10
2012/8/31 12:19,1.8,9,1.9,9,5.4,9
2012/8/31 12:20,1.9,9,1.9,9,3.5,8
2012/8/31 12:21,1.9,9,2,9,3.3,7
2012/8/31 12:22,2.1,8,2.1,9,4.8,8
2012/8/31 12:23,2.1,8,2.1,9,5.2,8
2012/8/31 12:24,2.3,8,2.3,8,5.8,8
2012/8/31 12:25,2.4,8,2.4,8,5.5,9
2012/8/31 12:26,2.5,8,2.5,8,4.4,8
2012/8/31 12:27,2.6,8,2.6,8,3.7,8
2012/8/31 12:28,2.4,8,2.6,8,1.9,8
2012/8/31 12:29,2.2,8,2.4,8,2,7
2012/8/31 12:30,2.2,8,2.2,8,3.1,8
2012/8/31 12:31,2.1,8,2.2,8,3.6,9
2012/8/31 12:32,2.1,8,2.1,8,3.6,8
2012/8/31 12:33,2,8,2.1,8,3.2,7
2012/8/31 12:34,1.9,8,2,8,3.9,8
2012/8/31 12:35,1.7,7,1.9,8,3.5,6
2012/8/31 12:36,1.7,8,1.7,8,3.6,10
2012/8/31 12:37,1.8,8,1.8,8,5.1,8
2012/8/31 12:38,2,8,2,8,4.8,8
2012/8/31 12:39,2.2,8,2.2,8,3.8,7
2012/8/31 12:40,2.3,8,2.3,8,4.2,8
2012/8/31 12:41,2.3,8,2.3,8,4.2,8
2012/8/31 12:42,2.4,8,2.4,8,4.7,8
2012/8/31 12:43,2.5,8,2.5,8,4.7,8
2012/8/31 12:44,2.6,8,2.6,8,5,8
2012/8/31 12:45,2.6,8,2.6,8,4.2,8
2012/8/31 12:46,2.7,8,2.7,8,4.2,8
2012/8/31 12:47,2.6,8,2.7,8,3.6,8
2012/8/31 12:48,2.5,8,2.6,8,3.5,8
2012/8/31 12:49,2.5,8,2.5,8,3.2,9
2012/8/31 12:50,2.5,8,2.6,8,5,7
2012/8/31 12:51,2.6,7,2.6,8,4.9,6
2012/8/31 12:52,2.5,7,2.6,8,3,6
2012/8/31 12:53,2.4,7,2.5,8,3.8,7
2012/8/31 12:54,2.3,7,2.4,8,4.3,7
2012/8/31 12:55,2.2,7,2.3,8,3.5,8
2012/8/31 12:56,2.2,7,2.2,8,3.9,6
2012/8/31 12:57,2.2,7,2.2,8,3.5,8
2012/8/31 12:58,2.1,7,2.2,8,3.3,8
2012/8/31 12:59,2.1,7,2.1,8,4.4,7
2012/8/31 13:00,2,7,2.1,7,4.8,8
2012/8/31 13:01,1.9,7,2,7,3.1,6
2012/8/31 13:02,2,7,2,7,4.7,5
2012/8/31 13:03,2.2,7,2.2,7,5,7
2012/8/31 13:04,2.3,7,2.3,7,5.2,6
2012/8/31 13:05,2.4,7,2.4,7,4.8,6
2012/8/31 13:06,2.5,7,2.5,7,4.1,6
2012/8/31 13:07,2.5,7,2.5,7,3.7,8
2012/8/31 13:08,2.5,7,2.5,7,3,9
2012/8/31 13:09,2.7,7,2.7,7,4.5,10
2012/8/31 13:10,2.6,7,2.6,7,4.5,7
2012/8/31 13:11,2.9,7,2.9,7,5.1,6
2012/8/31 13:12,2.8,7,2.9,7,4.1,6
2012/8/31 13:13,2.7,7,2.8,7,3.5,8
2012/8/31 13:14,2.6,7,2.7,7,4.2,7
2012/8/31 13:15,2.6,7,2.6,7,3.9,6
2012/8/31 13:16,2.6,7,2.6,7,3.3,8
2012/8/31 13:17,2.5,7,2.5,7,3.1,6
2012/8/31 13:18,2.6,7,2.6,7,3.9,6
2012/8/31 13:19,2.4,7,2.5,7,2.5,8
2012/8/31 13:20,2.4,7,2.5,7,3.5,8
2012/8/31 13:21,2.3,7,2.4,7,6,10
2012/8/31 13:22,2.4,7,2.4,7,4.9,8
2012/8/31 13:23,2.4,7,2.5,7,5.2,8
2012/8/31 13:24,2.5,7,2.5,7,3.8,8
2012/8/31 13:25,2.3,7,2.4,7,3,7
2012/8/31 13:26,2.4,8,2.4,7,3.9,7
2012/8/31 13:27,2.5,8,2.5,7,4.4,8
2012/8/31 13:28,2.4,8,2.5,7,3.3,9
2012/8/31 13:29,2.6,8,2.6,8,4.4,6
2012/8/31 13:30,2.6,8,2.6,8,3.1,6
2012/8/31 13:31,2.5,7,2.6,8,3.8,9
2012/8/31 13:32,2.4,8,2.5,8,5.2,9
2012/8/31 13:33,2.5,8,2.5,8,5.4,8
2012/8/31 13:34,2.6,8,2.6,8,5.1,8
2012/8/31 13:35,2.7,8,2.7,8,4.4,7
2012/8/31 13:36,2.7,8,2.7,8,4.9,9
2012/8/31 13:37,2.7,8,2.8,8,5,9
2012/8/31 13:38,3,8,3,8,6.5,10
2012/8/31 13:39,3,8,3,8,5.4,9
2012/8/31 13:40,3,9,3.1,8,5.1,10
2012/8/31 13:41,2.9,9,3,8,1.9,9
2012/8/31 13:42,2.8,9,2.8,8,4.4,9
2012/8/31 13:43,2.8,9,2.8,8,5.1,9
2012/8/31 13:44,2.8,9,2.8,8,5.1,9
2012/8/31 13:45,2.9,9,2.9,8,5.2,8
2012/8/31 13:46,2.8,9,2.9,8,3.5,9
2012/8/31 13:47,2.7,9,2.7,8,4.4,9
2012/8/31 13:48,2.5,10,2.7,8,4.9,9
2012/8/31 13:49,2.2,10,2.4,8,2.4,10
2012/8/31 13:50,2.1,10,2.1,9,3.8,9
2012/8/31 13:51,2.1,9,2.1,9,1.1,8
2012/8/31 13:52,2,10,2.1,9,2.1,9
2012/8/31 13:53,1.8,9,2,9,2.5,10
2012/8/31 13:54,1.7,9,1.8,9,4.1,8
2012/8/31 13:55,1.4,9,1.6,9,3.2,8
2012/8/31 13:56,1.4,9,1.5,9,3.9,9
2012/8/31 13:57,1.4,9,1.4,9,2.6,10
2012/8/31 13:58,1.4,9,1.4,10,4.4,9
2012/8/31 13:59,1.6,9,1.6,10,4.4,10
2012/8/31 14:00,1.7,9,1.7,10,4.8,9
2012/8/31 14:01,2,9,2,10,4.9,9
2012/8/31 14:02,2,9,2,10,4.3,9
2012/8/31 14:03,2.2,9,2.2,9,3.6,8
2012/8/31 14:04,2.1,9,2.2,9,3.1,8
2012/8/31 14:05,2.2,9,2.2,9,3.9,9
2012/8/31 14:06,2.3,9,2.3,9,3.6,11
2012/8/31 14:07,2.4,9,2.4,9,5.6,9
2012/8/31 14:08,2.4,9,2.4,9,3.9,9
2012/8/31 14:09,2.3,9,2.4,9,3.2,9
2012/8/31 14:10,2.1,9,2.2,9,3.8,10
2012/8/31 14:11,2,9,2.1,9,3.7,9
2012/8/31 14:12,2.1,9,2.1,9,4.2,8
2012/8/31 14:13,2.2,9,2.2,9,5.1,9
2012/8/31 14:14,2.3,9,2.3,9,4.5,8
2012/8/31 14:15,2.4,9,2.4,9,4.2,9
2012/8/31 14:16,2.3,9,2.4,9,3.6,9
2012/8/31 14:17,2.3,9,2.3,9,3.6,8
2012/8/31 14:18,2.3,9,2.3,9,3,10
2012/8/31 14:19,2.3,9,2.3,9,3.6,8
2012/8/31 14:20,2.4,9,2.4,9,3.2,9
2012/8/31 14:21,2.3,9,2.4,9,3.5,9
2012/8/31 14:22,2.3,9,2.4,9,3.2,9
2012/8/31 14:23,2.1,9,2.3,9,3,9
2012/8/31 14:24,2,9,2.1,9,2.7,8
2012/8/31 14:25,1.9,9,2,9,3.6,9
2012/8/31 14:26,1.9,9,1.9,9,3.8,9
2012/8/31 14:27,1.8,9,1.9,9,3.9,9
2012/8/31 14:28,1.8,9,1.8,9,3.3,8
2012/8/31 14:29,1.8,9,1.9,9,3,10
2012/8/31 14:30,1.7,9,1.8,9,2.4,9
2012/8/31 14:31,1.8,9,1.8,9,4.1,10
2012/8/31 14:32,1.8,9,1.8,9,3.1,10
2012/8/31 14:33,1.9,10,1.9,9,3.2,11
2012/8/31 14:34,1.9,10,1.9,9,2,10
2012/8/31 14:35,1.7,10,1.9,9,2,11
2012/8/31 14:36,1.7,10,1.7,9,3,11
2012/8/31 14:37,1.6,10,1.7,9,2.1,11
2012/8/31 14:38,1.6,10,1.6,9,3.2,9
2012/8/31 14:39,1.6,10,1.7,9,3.2,9
2012/8/31 14:40,1.7,10,1.7,9,2.5,9
2012/8/31 14:41,1.6,10,1.7,9,2,10
2012/8/31 14:42,1.4,10,1.6,9,0.6,13
2012/8/31 14:43,1.2,9,1.4,10,1,7
2012/8/31 14:44,1.3,9,1.3,10,1.9,7
2012/8/31 14:45,1.3,9,1.3,10,2.6,8
2012/8/31 14:46,1.3,9,1.3,10,2.6,8
2012/8/31 14:47,1.4,8,1.4,10,3.7,9
2012/8/31 14:48,1.4,8,1.4,10,2.9,9
2012/8/31 14:49,1.3,8,1.4,10,1.5,8
2012/8/31 14:50,1.1,9,1.3,10,0.9,13
2012/8/31 14:51,1.1,9,1.1,10,1.1,11
2012/8/31 14:52,1.1,9,1.1,10,1.1,9
2012/8/31 14:53,1.1,9,1.1,8,0.9,13
2012/8/31 14:54,1,10,1.1,8,1.4,10
2012/8/31 14:55,0.9,10,1,8,1.5,10
2012/8/31 14:56,0.8,10,0.9,8,1.3,9
2012/8/31 14:57,0.7,10,0.8,8,2,10
2012/8/31 14:58,0.8,10,0.8,8,2.7,11
2012/8/31 14:59,0.9,10,0.9,8,3,11
2012/8/31 15:00,1,10,1,9,2.7,10
2012/8/31 15:01,1.1,10,1.1,9,2.1,10
2012/8/31 15:02,1.2,10,1.2,10,3.1,10
2012/8/31 15:03,1.3,10,1.3,10,3.1,10
2012/8/31 15:04,1.4,10,1.4,10,2.5,10
2012/8/31 15:05,1.4,10,1.4,10,1.6,10
2012/8/31 15:06,1.6,10,1.6,10,2.9,8
2012/8/31 15:07,1.7,10,1.7,10,2.7,9
2012/8/31 15:08,1.6,10,1.7,10,2.4,8
2012/8/31 15:09,1.5,9,1.6,10,2,9
2012/8/31 15:10,1.5,9,1.5,10,1.9,10
2012/8/31 15:11,1.4,9,1.4,10,1.6,9
2012/8/31 15:12,1.3,9,1.4,10,1.3,8
2012/8/31 15:13,1.2,9,1.3,10,1.6,8
2012/8/31 15:14,1.2,9,1.2,10,2,8
2012/8/31 15:15,1.1,9,1.2,10,1.5,9
2012/8/31 15:16,1,10,1.1,10,1.5,8
2012/8/31 15:17,0.9,10,1,10,1.4,8
2012/8/31 15:18,0.9,10,0.9,9,3.3,9
2012/8/31 15:19,0.9,10,0.9,9,3.2,9
2012/8/31 15:20,1.1,10,1.1,9,4.4,11
2012/8/31 15:21,1.1,10,1.1,9,1.9,9
2012/8/31 15:22,1.1,10,1.1,9,0.9,8
2012/8/31 15:23,1.1,10,1.1,9,1.9,11
2012/8/31 15:24,1.1,10,1.2,9,1.4,11
2012/8/31 15:25,1.1,10,1.1,10,2.1,9
2012/8/31 15:26,1.2,10,1.2,10,2.2,8
2012/8/31 15:27,1.2,10,1.2,10,2,9
2012/8/31 15:28,1.2,10,1.2,10,1.9,10
2012/8/31 15:29,1.1,10,1.2,10,1.8,9
2012/8/31 15:30,1,10,1.1,10,1.5,12
2012/8/31 15:31,1.1,11,1.1,10,3.3,10
2012/8/31 15:32,1.3,11,1.3,11,3.5,9
2012/8/31 15:33,1.3,11,1.3,11,2.4,11
2012/8/31 15:34,1.4,11,1.4,11,2.6,10
2012/8/31 15:35,1.4,11,1.5,11,2.5,12
2012/8/31 15:36,1.3,11,1.4,11,1,9
2012/8/31 15:37,1.3,11,1.3,11,1,9
2012/8/31 15:38,1.2,11,1.3,11,1,13
2012/8/31 15:39,1.2,11,1.2,11,1.5,9
2012/8/31 15:40,1.2,11,1.2,11,1.1,10
2012/8/31 15:41,1.1,11,1.2,11,2.2,13
2012/8/31 15:42,1,11,1.1,11,2.1,12
2012/8/31 15:43,0.9,11,1,11,1.1,10
2012/8/31 15:44,0.9,11,0.9,11,2.1,12
2012/8/31 15:45,0.9,11,0.9,11,2.1,10
2012/8/31 15:46,1,11,1,11,1.4,13
2012/8/31 15:47,1,11,1,11,1.9,10
2012/8/31 15:48,1.1,11,1.1,11,2.7,7
2012/8/31 15:49,1.2,11,1.2,11,2.6,10
2012/8/31 15:50,1.4,11,1.4,11,2.7,11
2012/8/31 15:51,1.4,11,1.4,11,2.1,13
2012/8/31 15:52,1.4,11,1.4,11,1.9,11
2012/8/31 15:53,1.4,11,1.4,11,1,11
2012/8/31 15:54,1.3,11,1.4,11,1.1,11
2012/8/31 15:55,1.2,12,1.3,11,0.4,10
2012/8/31 15:56,1.1,11,1.1,11,0.4,10
2012/8/31 15:57,1,12,1.1,11,1.5,13
2012/8/31 15:58,1,12,1,11,1.4,12
2012/8/31 15:59,0.9,12,1,11,1.1,14
2012/8/31 16:00,0.7,12,0.9,11,0.9,13
2012/8/31 16:01,0.7,13,0.7,11,1,13
2012/8/31 16:02,0.7,13,0.7,11,1.9,12
2012/8/31 16:03,0.8,13,0.8,11,2.4,13
2012/8/31 16:04,0.8,13,0.8,11,2,13
2012/8/31 16:05,0.9,13,0.9,12,1.3,11
2012/8/31 16:06,1,13,1,11,2,12
2012/8/31 16:07,1.1,13,1.1,13,3.1,9
2012/8/31 16:08,1.2,12,1.2,13,2.7,10
2012/8/31 16:09,1.4,12,1.4,12,3,10
2012/8/31 16:10,1.4,12,1.4,12,2.7,10
2012/8/31 16:11,1.5,11,1.5,12,1.9,12
2012/8/31 16:12,1.5,11,1.6,11,2.7,10
2012/8/31 16:13,1.5,11,1.6,11,2.4,10
2012/8/31 16:14,1.5,11,1.5,11,1.9,11
2012/8/31 16:15,1.6,10,1.6,11,1.9,10
2012/8/31 16:16,1.5,10,1.6,11,1.6,10
2012/8/31 16:17,1.5,10,1.5,11,1.8,10
2012/8/31 16:18,1.4,10,1.5,11,2.1,9
2012/8/31 16:19,1.3,10,1.4,11,2.2,10
2012/8/31 16:20,1.3,10,1.4,11,2.6,10
2012/8/31 16:21,1.4,10,1.4,11,2.7,9
2012/8/31 16:22,1.4,10,1.4,11,2.9,9
2012/8/31 16:23,1.4,10,1.4,11,2.2,9
2012/8/31 16:24,1.4,10,1.4,11,2.2,11
2012/8/31 16:25,1.4,10,1.4,10,2.4,11
2012/8/31 16:26,1.4,10,1.4,10,2.5,9
2012/8/31 16:27,1.5,10,1.5,10,2.1,9
2012/8/31 16:28,1.5,10,1.5,10,2.7,10
2012/8/31 16:29,1.5,10,1.5,10,3.2,9
2012/8/31 16:30,1.5,10,1.5,10,2.7,11
2012/8/31 16:31,1.6,10,1.6,10,3.5,9
2012/8/31 16:32,1.6,10,1.6,10,3.5,9
2012/8/31 16:33,1.6,10,1.6,10,3.5,8
2012/8/31 16:34,1.6,9,1.6,10,2,8
2012/8/31 16:35,1.7,9,1.7,9,3.1,5
2012/8/31 16:36,1.8,8,1.8,8,2.9,5
2012/8/31 16:37,1.8,8,1.8,8,2.6,5
2012/8/31 16:38,1.9,7,1.9,7,2.5,5
2012/8/31 16:39,1.9,6,1.9,7,2.2,4
2012/8/31 16:40,1.9,6,1.9,7,1.9,3
2012/8/31 16:41,1.8,5,1.9,7,1.6,4
2012/8/31 16:42,1.6,5,1.8,7,1.9,4
2012/8/31 16:43,1.6,4,1.7,7,2.2,3
2012/8/31 16:44,1.7,4,1.7,7,1.8,3
2012/8/31 16:45,1.6,4,1.7,7,1.6,5
2012/8/31 16:46,1.5,4,1.5,7,2,3
2012/8/31 16:47,1.4,4,1.5,7,2.5,3
2012/8/31 16:48,1.3,4,1.4,7,1.8,3
2012/8/31 16:49,1.3,3,1.3,6,2,3
2012/8/31 16:50,1.2,3,1.3,6,0.9,2
2012/8/31 16:51,1.1,3,1.2,5,0.5,2
2012/8/31 16:52,1,3,1.1,5,0.5,14
2012/8/31 16:53,0.9,2,1,4,0.8,6
2012/8/31 16:54,0.9,3,0.9,4,2.5,8
2012/8/31 16:55,0.9,3,0.9,4,2.5,8
2012/8/31 16:56,0.9,2,1,4,2.4,9
2012/8/31 16:57,0.8,1,0.9,4,0.9,8
2012/8/31 16:58,0.8,11,0.8,4,1.3,9
2012/8/31 16:59,0.9,10,0.9,3,2.9,10
2012/8/31 17:00,1,10,1,3,2.9,9
2012/8/31 17:01,1.2,10,1.2,10,3,9
2012/8/31 17:02,1.4,9,1.4,9,3,9
2012/8/31 17:03,1.5,9,1.5,9,2.6,9
2012/8/31 17:04,1.5,9,1.5,9,2.2,11
2012/8/31 17:05,1.4,10,1.5,9,1.8,12
2012/8/31 17:06,1.5,10,1.5,9,2.9,12
2012/8/31 17:07,1.5,10,1.5,9,1.9,13
2012/8/31 17:08,1.6,10,1.6,10,2.5,14
2012/8/31 17:09,1.6,11,1.6,10,1.9,14
2012/8/31 17:10,1.5,11,1.6,10,1.6,12
2012/8/31 17:11,1.4,12,1.5,10,1.9,16
2012/8/31 17:12,1.4,12,1.4,10,1.8,16
2012/8/31 17:13,1.3,13,1.3,10,1.8,15
2012/8/31 17:14,1.3,13,1.3,10,2.2,15
2012/8/31 17:15,1.4,13,1.4,10,2.7,15
2012/8/31 17:16,1.4,14,1.5,10,2.5,15
2012/8/31 17:17,1.5,14,1.5,10,2.2,15
2012/8/31 17:18,1.5,14,1.5,10,2.5,15
2012/8/31 17:19,1.5,15,1.5,11,2.5,15
2012/8/31 17:20,1.6,15,1.6,15,2.5,16
2012/8/31 17:21,1.6,15,1.6,15,2.4,16
2012/8/31 17:22,1.7,15,1.7,15,2.6,16
2012/8/31 17:23,1.7,15,1.7,15,2.5,15
2012/8/31 17:24,1.7,16,1.7,15,2.7,16
2012/8/31 17:25,1.7,16,1.7,15,2.6,16
2012/8/31 17:26,1.7,16,1.7,15,2.6,15
2012/8/31 17:27,1.7,16,1.7,15,1.9,16
2012/8/31 17:28,1.6,16,1.7,15,2.4,15
2012/8/31 17:29,1.7,16,1.7,15,2.4,16
2012/8/31 17:30,1.7,16,1.7,15,2.5,15
2012/8/31 17:31,1.7,16,1.7,15,2.5,16
2012/8/31 17:32,1.7,16,1.7,15,2.4,15
2012/8/31 17:33,1.7,15,1.7,15,2.9,15
2012/8/31 17:34,1.7,15,1.7,16,3,15
2012/8/31 17:35,1.7,15,1.8,15,2.9,15
2012/8/31 17:36,1.7,15,1.7,15,2.7,15
2012/8/31 17:37,1.8,15,1.8,15,2.5,15
2012/8/31 17:38,1.8,15,1.8,15,2.6,15
2012/8/31 17:39,1.9,15,1.9,15,2.5,14
2012/8/31 17:40,1.9,15,1.9,15,3.1,15
2012/8/31 17:41,1.9,15,1.9,15,2.4,14
2012/8/31 17:42,2,15,2,15,2.5,14
2012/8/31 17:43,2,15,2,15,2.7,15
2012/8/31 17:44,2,15,2,15,2.7,14
2012/8/31 17:45,1.9,15,2,15,2.2,15
2012/8/31 17:46,1.9,15,2,15,2.6,15
2012/8/31 17:47,1.9,15,1.9,15,1.8,16
2012/8/31 17:48,1.8,15,1.8,15,1.8,16
2012/8/31 17:49,1.7,15,1.7,15,1.6,15
2012/8/31 17:50,1.6,15,1.6,15,1.9,15
2012/8/31 17:51,1.5,15,1.6,15,1.9,16
2012/8/31 17:52,1.4,15,1.5,15,1.5,15
2012/8/31 17:53,1.3,15,1.4,15,1.5,16
2012/8/31 17:54,1.2,15,1.3,15,1.5,16
2012/8/31 17:55,1.1,15,1.2,15,1.9,16
2012/8/31 17:56,1.1,15,1.1,15,2,14
2012/8/31 17:57,1.1,15,1.1,15,1.9,15
2012/8/31 17:58,1.1,15,1.1,15,1.3,15
2012/8/31 17:59,1,15,1.1,15,1.3,16
2012/8/31 18:00,0.9,15,1,15,1.1,10
2012/8/31 18:01,0.9,14,1,15,2.1,12
2012/8/31 18:02,1,14,1,15,2.4,12
2012/8/31 18:03,1.1,14,1.1,15,2.7,14
2012/8/31 18:04,1.1,14,1.1,15,1.5,12
2012/8/31 18:05,1.1,13,1.1,15,2.4,11
2012/8/31 18:06,1.1,13,1.1,15,2.2,14
2012/8/31 18:07,1.1,13,1.1,15,2,12
2012/8/31 18:08,1.2,12,1.2,13,2.5,12
2012/8/31 18:09,1.3,12,1.3,12,2.4,12
2012/8/31 18:10,1.5,12,1.5,12,3.2,11